STARLINK-36472, 67346

Orbit data source: Space-Track

STARLINK-36472, 67346 is a payload satellite owned by SpaceX/Seattle (US) in LEO that was launched on Fri, 09 Jan 2026 UTC via an FALCON 9 launch vehicle from the Air Force Eastern Test Range (AFETR). Payload-class satellites include a variety of spacecraft equipped with specific instruments for various scientific and technological missions. These include communications satellites like Starlink; space stations such as the ISS; scientific satellites like the Hubble; Earth observation satellites from companies like Planet Labs, Umbra, and HawkEye 360; GPS; miniature CubeSats for education and research; and military/defense satellites.

Loading next visibility...
Identifier
67346, 2026-003N
Orbit
LEO
Country
Flag of USUS
Related business
Manufacturer
SpaceX/Seattle
Mission
Operational Commercial Communications
Bus & Motor
STARLINK V2MO, Unknown motor
Mass
575 kg wet, ~530 kg dry
Launch date (UTC)
2026-01-09 (5 months ago)
Launch vehicle
FALCON 9
Launch site
Air Force Eastern Test Range (AFETR)
Object type
Payload
Rocket body
Debris
Shape & HBR
Box + 2 Pan, 17.7 m
Radar Cross Section
36.964 m², Large (>1 m²)

Expand to show TLE details & history
Last TLE update: 23 hours ago

TLE from 23 hours ago
0 STARLINK-36472
1 67346U 26003N   26170.90597940  .00012746  00000-0  47183-3 0  9992
2 67346  42.9984  10.0626 0001570 274.9679  85.0993 15.27585833 24441
Epoch: 2026-06-19T21:44Z
TLE epoch observation values (Epoch: 2026-06-19T21:44:36.620Z)
Latitude
-0.00003°
Longitude
135.78175°
Altitude
482.715 km
Speed
7.626 km/s
True Right ascension
00h 40m 15s
True Declination
0° 00' 00"
Sunlit
Object was in daylight at epoch
Visualization orbit readout
Latitude
Unknown
Longitude
Unknown
Altitude
Unknown
Speed
Unknown
Apparent Right ascension
Unknown
Apparent Declination
Unknown
Sunlit
N/A
Visualization observer readout
Local Sidereal Time
07:20:34
Azimuth
Unknown
Elevation
Unknown
Doppler factor
Unknown
Orbital elements
Apogee altitude
486.055 km
Perigee altitude
483.9 km
Semi-major axis
6,863.114 km
Eccentricity
0.00016
Inclination
42.9984°
RAAN
10.0626°
Arg. of periapsis
274.9679°
True anomaly
85.11723°
Mean anomaly
85.0993°
Eccentric anomaly
85.10826°
Mean motion
3.81734 °/min
Orbital period
94.31 mins
BSTAR
0.00047183
Loading maneuver chart data...
Computing Atmospheric mass density...
Loading historical data...
Loading historical data...
Loading historical data...
Loading historical data...
Loading historical data...
Loading historical data...
Loading historical data...

Documentation

Showing up to 5 results
|